Location: Bakersfield
(35.3730°N, 119.0180°W)
Time: 15:47:57
(UTC-07:00)

Daily predictions for brighter satellites

Satellite Brightness Start Highest point End
(mag) Time Altitude Azimuth Time Altitude Azimuth Time Altitude Azimuth
ALOS 4.3 20:26:04 10° SSW 20:30:09 30° W 20:34:16 10° NW
Cosmos 1943 Rocket 3.5 20:28:08 10° SE 20:31:53 19° E 20:35:36 10° ENE
Tiangong 2 2.4 20:28:56 10° NW 20:31:56 34° NNE 20:34:54 10° E
NOSS 3-2 (C) 3.6 20:29:14 10° SSW 20:35:09 85° WNW 20:41:37 10° NNE
Cosmos 2034 Rocket 4.0 20:30:51 10° N 20:37:05 85° E 20:43:13 10° S
Cosmos 2344 4.5 20:33:01 10° SSE 20:38:53 24° ESE 20:44:48 10° ENE
Envisat 3.2 20:35:20 10° SSE 20:40:17 57° ENE 20:45:16 10° N
Cosmos 2242 Rocket 3.8 20:36:50 10° N 20:41:17 75° W 20:45:41 10° S
Cosmos 990 Rocket 4.0 20:38:00 10° SSW 20:43:11 88° ESE 20:48:26 10° NNE
Cosmos 1898 Rocket 4.4 20:38:42 10° SSW 20:43:51 55° WNW 20:49:04 10° N
Cosmos 1933 Rocket 3.8 20:41:51 10° SSW 20:46:11 73° W 20:50:31 10° N
Helios 1A 3.8 20:42:41 10° SE 20:46:26 33° ENE 20:50:12 10° N
CENTAUR R/B 2.8 20:44:04 10° S 20:49:25 39° ESE 20:55:22 10° NE
Molniya-1 2.5 20:47:30 10° SSW 20:49:28 43° ESE 20:51:04 10° NE
COSMOS 2455 2.8 20:44:53 10° SSW 20:50:49 69° ESE 20:56:48 10° NNE
OAO 2 Rocket 3.9 20:48:22 10° W 20:53:12 45° SSW 20:57:22 13° SE
Cosmos 1862 Rocket 3.7 20:48:49 10° N 20:53:19 83° W 20:57:47 10° S
Cosmos 2369 Rocket 2.3 20:47:55 10° S 20:53:25 57° ESE 20:58:58 10° NNE
Resurs 01 Rocket 2.4 20:49:51 10° S 20:54:10 53° W 20:58:30 10° NNW
Cosmos 1125 Rocket 4.3 20:49:38 10° SSE 20:54:11 31° E 20:58:45 10° NE
Shenzhou-11 Module 2.3 20:52:03 10° WNW 20:55:06 58° NNE 20:57:31 15° ESE
Milstar 3 4.2 20:42:20 10° SW 20:55:37 43° SSE 21:03:17 10° E
Lacrosse 5 rocket 0.9 20:53:18 10° SW 20:56:51 87° SE 21:00:29 10° NE
Cosmos 1346 Rocket 2.8 20:57:07 10° N 21:01:04 63° E 21:04:59 10° SSE
YAOGAN 6 3.1 20:58:21 13° SE 21:01:25 42° ENE 21:04:56 10° N
Cosmos 1939 Rocket 2.9 21:01:15 10° SSE 21:05:23 78° ENE 21:09:31 10° N
Delta 168 4.3 21:04:32 10° SW 21:07:16 20° S 21:08:58 16° SE
OE (NEXTSAT) 4.3 21:06:20 10° WNW 21:09:54 83° SW 21:12:03 22° SE
SL-19 R/B 4.4 21:06:18 10° SSE 21:11:59 85° ENE 21:18:04 10° NNW
GPS 2-04 Rocket1 2.4 21:10:12 10° W 21:13:58 84° N 21:16:29 19° E
Okean 1-7 3.6 21:13:05 10° N 21:17:16 41° E 21:19:40 22° SE
ATLAS 5 CENTAUR R/B 3.7 21:13:31 10° N 21:18:38 28° NE 21:22:41 15° E
Meteor 1-29 2.9 21:19:10 10° NNE 21:22:41 83° ESE 21:26:09 10° S
Aureole 3 2.6 21:21:59 21° S 21:23:49 60° E 21:26:45 10° NNE
H-2A R/B 3.6 21:22:48 17° E 21:25:00 22° ENE 21:29:00 10° NNE
Cosmos 2142 Rocket 4.4 21:20:10 10° N 21:26:18 71° E 21:31:22 16° SSE
Cosmos 1408 2.7 21:26:50 25° SSE 21:28:45 52° E 21:32:23 10° NNE
Cosmos 1703 Rocket 3.5 21:26:03 10° N 21:30:29 88° W 21:33:41 18° S
ARGOS 3.8 21:29:08 24° ESE 21:31:44 38° ENE 21:36:39 10° N
Cosmos 1733 Rocket 4.0 21:38:50 27° E 21:39:02 28° E 21:42:43 10° NNE
Cosmos 1782 2.8 21:35:12 10° N 21:39:10 61° E 21:40:31 37° SE
Cosmos 1825 2.0 21:38:01 28° S 21:39:52 71° E 21:43:39 10° NNE
DNEPR-1 R/B 4.0 21:35:19 10° SSW 21:40:49 79° WNW 21:45:27 10° NNE
Cosmos 1869 Rocket 4.2 21:41:46 10° SSW 21:46:00 56° W 21:50:17 10° N
ERS-1 Rocket 2.9 21:43:32 27° SSE 21:46:18 81° ENE 21:51:22 10° N
SL-08 RB Rocket 4.4 21:45:10 32° ESE 21:46:26 39° ENE 21:50:46 10° N
Helios 1B rocket 4.1 21:47:19 10° N 21:51:02 34° WNW 21:54:45 10° SW
Cosmos 2084 3.2 21:49:37 10° NW 21:53:28 74° WSW 21:54:26 49° S
Cosmos 1862 3.3 21:55:14 54° SE 21:55:43 60° E 21:59:38 10° NNE
ISS -0.6 21:55:49 10° WNW 21:57:46 15° NNW 21:59:42 10° N
Cosmos 1048 Rocket 4.0 21:53:11 10° NNW 21:58:30 69° ENE 22:00:11 42° SE
Lacrosse 4 Rocket 2.1 21:57:18 10° N 22:01:34 41° ENE 22:02:08 39° E
OAO 3 Copernicus 4.1 22:00:24 10° WSW 22:05:25 75° S 22:07:00 44° E
Cosmos 2221 Rocket 4.3 22:01:20 10° NNW 22:05:37 49° W 22:07:52 25° SSW
MetOp-A 4.1 22:03:35 33° S 22:06:03 79° WSW 22:11:26 10° NNW
Tiangong 2 2.4 22:05:50 10° WNW 22:08:08 35° WSW 22:08:08 35° WSW
deb Kosmos-1763 4.0 22:07:29 10° NNW 22:11:15 89° W 22:11:15 89° W
Terra 3.1 22:12:01 26° ENE 22:12:02 26° ENE 22:15:56 10° NNE
USA 215 3.4 22:09:49 35° ESE 22:12:43 67° NE 22:19:12 10° NW
Cosmos 1943 Rocket 3.0 22:09:44 10° SW 22:15:09 50° WNW 22:20:33 10° N
Cosmos 1340 2.8 22:14:38 10° NNW 22:18:24 68° W 22:18:27 68° WSW
DMSP B5D2-2 4.1 22:14:04 10° NNE 22:19:11 55° E 22:19:27 54° ESE
Cosmos 1674 Rocket 4.2 22:15:05 10° N 22:18:42 41° ENE 22:18:42 41° ENE
SPOT 1/Viking Rocket 3.5 22:22:09 60° SE 22:23:02 75° ENE 22:28:15 10° N
SPOT 5 3.2 22:26:39 49° S 22:28:05 72° WSW 22:33:25 10° NNW
H-2A R/B 3.9 22:31:06 19° NE 22:31:06 19° NE 22:33:08 10° NNE
YAOGAN 11 4.3 22:31:48 60° SW 22:32:15 65° WSW 22:36:46 10° NNW
Cosmos 1606 4.4 22:30:04 10° NNW 22:33:15 26° W 22:33:58 24° WSW
Cosmos 1269 Rocket 4.4 22:29:35 10° NNW 22:34:46 58° WSW 22:35:49 49° SSW
GEOS 3 Rocket 4.4 22:35:53 35° ENE 22:36:38 37° NE 22:41:23 10° NNW
Cosmos 1092 Rocket 3.8 22:36:34 59° SSE 22:37:44 76° E 22:43:52 10° N
Nadezhda 4 Rocket 4.1 22:35:52 37° SSW 22:38:30 74° W 22:44:41 10° N
CENTAUR R/B 4.1 22:34:39 10° WSW 22:40:03 33° NW 22:46:07 10° NNE
Cosmos 1833 4.2 22:41:33 10° NNW 22:47:18 69° WSW 22:47:58 63° SSW
Cosmos 1908 Rocket 4.3 22:52:48 50° NNE 22:52:48 50° NNE 22:56:08 10° N
Cosmos 2344 4.3 22:45:06 10° SW 22:52:33 53° NW 23:00:43 10° NNE
Cosmos 2297 Rocket 4.3 22:56:25 10° NNE 22:59:25 14° NE 23:00:02 14° ENE
H-2A ROCKET BODY 3.9 22:56:55 10° WSW 23:29:22 - ESE 22:58:45 24° SW
ATLAS 5 CENTAUR R/B 2.8 22:57:36 10° NW 23:03:37 54° WSW 23:04:14 52° SW
Cosmos 1867 3.8 22:58:21 10° NNW 23:03:23 63° NNE 23:03:23 63° NNE
H-2A R/B 2.9 23:03:26 41° WSW 23:04:05 42° W 23:09:09 10° NNW
Cosmos 494 Rocket 4.2 23:04:54 10° NNW 23:09:26 67° NW 23:09:26 67° NW
Meteor 1-20 Rocket 4.5 23:26:09 66° NNE 23:26:09 66° NNE 23:31:00 10° N
CZ-4B R/B 4.5 23:21:55 10° NNE 23:25:02 39° NNE 23:25:02 39° NNE
Meteor 1-25 Rocket 4.5 23:31:47 68° NW 23:31:47 68° NW 23:37:04 10° N
Milstar 3 3.7 23:30:41 10° WSW 23:36:55 39° SW 23:36:55 39° SW
Lacrosse 4 Rocket 4.1 23:37:11 10° WNW 23:38:29 14° W 23:38:29 14° W
Cosmos 1655 Rocket 4.1 23:43:07 69° NW 23:43:07 69° NW 23:48:55 10° N
ATLAS CENTAUR R/B 3.9 23:48:33 19° NNW 23:48:33 19° NNW 23:50:16 10° N
CZ-2C R/B 4.1 23:43:25 10° NNE 23:46:00 28° NE 23:46:00 28° NE
Cosmos 2227 Rocket 3.2 23:44:06 10° N 23:48:20 40° NNE 23:48:20 40° NNE
Terra 3.7 23:50:54 24° WNW 23:50:54 24° WNW 23:53:43 10° NW
